Location: Valdosta
(30.8330°N, 83.2790°W)
Time: 10:00:38
(UTC-04:00)

Amateur Radio Satellites - All Passes

Search period start: 25 September 2016 09:30
Search period end: 26 September 2016 09:30
Location: Valdosta, 30.8330°N, 83.2790°W

Satellite Date Start Highest point End Downlink Frequencies (MHz)
Time Altitude Azimuth
HO-68 25 Sep 09:32:09 09:39:20 84° 105° (ESE) 09:46:30 435.675
DANDE 25 Sep 09:32:11 09:39:17 32° 273° (W) 09:45:55 436.750
CINEMA 3 25 Sep 09:38:34 09:42:30 42° 285° (WNW) 09:46:31 145.822/145.860
AAUSAT CUBESAT 2 25 Sep 09:51:31 09:55:40 61° 100° (E) 09:59:48 437.432
FUNcube-1 25 Sep 09:51:51 09:55:04 20° 96° (E) 09:58:20 145.935
UWE-3 25 Sep 09:54:56 09:59:00 40° 99° (E) 10:03:09 435.000/436.395/437.385
UNISAT 6 25 Sep 09:58:26 09:59:13 10° 67° (ENE) 10:00:01 437.425
Cosmos 2499 25 Sep 10:09:02 10:16:23 89° 269° (W) 10:23:29 435.465 / 435.565
GONETS M04 25 Sep 10:09:50 10:18:40 79° 276° (W) 10:27:33
PRISM 25 Sep 10:24:49 10:28:26 29° 262° (W) 10:32:05 437.425
ANTELSAT 25 Sep 10:30:53 10:34:30 27° 73° (ENE) 10:38:06 437.575/2403.000
ZACube-1 25 Sep 10:31:09 10:35:28 69° 101° (E) 10:39:52 437.345
COMPASS 1 25 Sep 10:33:06 10:36:45 29° 287° (WNW) 10:40:23 437.405
Oscar 11 25 Sep 10:35:12 10:39:34 75° 103° (ESE) 10:43:54 145.826/435.025
TIGRISAT 25 Sep 10:51:44 10:55:51 46° 75° (ENE) 10:59:56 435.000
SEEDS 25 Sep 10:58:16 10:59:12 11° 292° (WNW) 11:00:10 437.485
CUBEBUG 2 25 Sep 11:07:53 11:10:34 16° 290° (WNW) 11:13:19 437.445
HUMSAT D 25 Sep 11:18:32 11:22:34 41° 99° (E) 11:26:36 437.325/437.525
HO-68 25 Sep 11:22:33 11:26:07 15° 300° (WNW) 11:29:42 435.675
FUNcube-1 25 Sep 11:27:38 11:31:12 26° 288° (WNW) 11:34:51 145.935
UNISAT 6 25 Sep 11:31:18 11:35:28 49° 260° (W) 11:39:37 437.425
UWE-3 25 Sep 11:33:01 11:35:06 13° 291° (WNW) 11:37:11 435.000/436.395/437.385
DELFI C3 25 Sep 11:37:48 11:41:39 45° 285° (WNW) 11:45:27 145.870
QB50P1 25 Sep 11:46:44 11:50:07 24° 72° (ENE) 11:53:31 145.935-145.965
DUCHIFAT 1 25 Sep 11:48:11 11:51:22 21° 71° (ENE) 11:54:34 145.980
BEESAT 3 25 Sep 11:50:08 11:54:04 62° 61° (ENE) 11:57:58 437.485
JAS-2 25 Sep 11:57:52 12:03:11 31° 67° (ENE) 12:09:02 435.910
POPSAT HIP 1 25 Sep 11:59:30 12:03:18 34° 73° (ENE) 12:07:06 437.405
PHONESAT 2.4 25 Sep 12:04:12 12:07:08 80° 150° (SSE) 12:10:05 2401.200-2431.200
BUGSAT 1 25 Sep 12:04:33 12:06:16 12° 69° (ENE) 12:07:59 437.445
ANTELSAT 25 Sep 12:08:12 12:11:10 18° 264° (W) 12:14:06 437.575/2403.000
Cosmos 2499 25 Sep 12:09:57 12:10:17 10° 291° (WNW) 12:10:36 435.465 / 435.565
GONETS M04 25 Sep 12:14:19 12:16:47 11° 294° (WNW) 12:19:15
AISAT 25 Sep 12:16:54 12:18:22 11° 94° (E) 12:19:49 437.250
NANOSAT C BR1 25 Sep 12:17:34 12:21:41 56° 76° (ENE) 12:25:47 145.865
50 SAT 25 Sep 12:27:34 12:29:07 12° 94° (E) 12:30:40 437.505
TIGRISAT 25 Sep 12:32:10 12:32:42 10° 267° (W) 12:33:14 435.000
QB50P2 25 Sep 12:38:03 12:42:14 67° 258° (WSW) 12:46:26 145.880/145.840
BEESAT 2 25 Sep 12:39:26 12:43:26 70° 244° (WSW) 12:47:23 435.950
POLYITAN 1 25 Sep 12:40:19 12:44:29 66° 259° (W) 12:48:41 437.675
ESTCUBE 1 25 Sep 12:46:15 12:50:44 61° 100° (E) 12:55:12 437.505/2401.250
HUMSAT D 25 Sep 12:55:57 12:57:46 13° 291° (WNW) 12:59:36 437.325/437.525
VELOX 1 25 Sep 12:58:28 13:02:33 37° 99° (E) 13:06:36 145.980
DX 1 25 Sep 13:00:50 13:04:18 23° 97° (E) 13:07:43 434.975-435.025
M-CUBED/EXP-1 PRIME 25 Sep 13:03:53 13:06:24 20° 102° (ESE) 13:08:54 437.505
CUBEBUG 1 25 Sep 13:10:12 13:14:33 73° 102° (ESE) 13:18:49 437.445
QB50P1 25 Sep 13:22:41 13:25:47 20° 264° (W) 13:28:53 145.935-145.965
DUCHIFAT 1 25 Sep 13:23:38 13:26:54 22° 263° (W) 13:30:11 145.980
POPSAT HIP 1 25 Sep 13:36:55 13:39:07 14° 265° (W) 13:41:19 437.405
BUGSAT 1 25 Sep 13:37:22 13:41:16 38° 261° (W) 13:45:07 437.445
PHONESAT 2.4 25 Sep 13:41:16 13:43:30 19° 344° (NNW) 13:45:46 2401.200-2431.200
JAS-2 25 Sep 13:42:32 13:47:59 35° 264° (W) 13:54:07 435.910
AISAT 25 Sep 13:50:48 13:54:59 44° 286° (WNW) 13:59:08 437.250
50 SAT 25 Sep 13:59:28 14:02:38 28° 287° (WNW) 14:05:46 437.505
TISAT 1 25 Sep 14:01:12 14:04:00 18° 96° (E) 14:06:49 437.305
AUBIESAT-1 25 Sep 14:02:50 14:06:04 55° 288° (WNW) 14:09:19 437.475
SPROUT 25 Sep 14:04:54 14:09:05 60° 284° (WNW) 14:13:15 437.525
YUBILEINY 25 Sep 14:10:35 14:16:48 21° 72° (ENE) 14:22:58 435.215
UKube-1 25 Sep 14:13:09 14:17:23 56° 285° (WNW) 14:21:35 .
AO-7 25 Sep 14:22:27 14:23:38 10° 53° (NE) 14:24:49 29.400- 29.500
Oscar 19 25 Sep 14:23:01 14:28:13 86° 258° (WSW) 14:33:27 437.125/150
PCSat 25 Sep 14:25:33 14:29:10 18° 54° (NE) 14:32:46 145.827
VELOX 1 25 Sep 14:36:11 14:38:38 15° 292° (WNW) 14:41:05 145.980
AIST 2 25 Sep 14:36:55 14:41:05 66° 62° (ENE) 14:45:15 435.215
DX 1 25 Sep 14:36:57 14:40:19 22° 290° (WNW) 14:43:40 434.975-435.025
M-CUBED/EXP-1 PRIME 25 Sep 14:39:09 14:40:44 13° 294° (WNW) 14:42:19 437.505
SWISSCUBE 25 Sep 14:47:20 14:49:10 12° 94° (E) 14:50:59 437.505
Cosmos 2504 25 Sep 14:57:27 15:00:26 12° 71° (ENE) 15:03:28 435.465 / 435.565
Gurwin Techsat 1B 25 Sep 14:57:59 15:03:17 86° 258° (WSW) 15:08:37 435.225
BEESAT 25 Sep 14:59:46 15:02:33 15° 95° (E) 15:05:19 436.000
ITAMSAT 1 25 Sep 15:10:44 15:15:14 31° 71° (ENE) 15:19:45 435.822/435.867
PHONESAT 2.4 25 Sep 15:18:56 15:20:22 13° 1° (N) 15:21:49 2401.200-2431.200
TISAT 1 25 Sep 15:36:06 15:39:35 27° 288° (WNW) 15:43:05 437.305
Cosmos 2491 25 Sep 15:52:16 16:00:56 69° 92° (E) 16:09:40 435.465 / 435.565
YUBILEINY 25 Sep 16:05:33 16:14:06 65° 268° (W) 16:22:39 435.215
AO-7 25 Sep 16:06:37 16:14:49 66° 70° (ENE) 16:23:01 29.400- 29.500
SO-50 25 Sep 16:07:31 16:12:15 56° 114° (ESE) 16:16:58 436.795
PCSat 25 Sep 16:07:35 16:12:49 51° 250° (WSW) 16:18:02 145.827
ITUPSAT 1 25 Sep 16:07:41 16:12:31 88° 283° (WNW) 16:17:20 437.325
SWISSCUBE 25 Sep 16:22:30 16:27:09 51° 286° (WNW) 16:31:47 437.505
BEESAT 25 Sep 16:35:57 16:40:25 41° 287° (WNW) 16:44:54 436.000
Cosmos 2504 25 Sep 16:46:57 16:54:27 87° 265° (W) 17:02:30 435.465 / 435.565
MOZHAYETS 4 25 Sep 16:49:22 16:53:45 40° 99° (E) 16:58:06
ITAMSAT 1 25 Sep 16:50:34 16:54:37 23° 263° (W) 16:58:43 435.822/435.867
PHONESAT 2.4 25 Sep 16:54:42 16:57:11 23° 18° (NNE) 16:59:38 2401.200-2431.200
KKS-1 25 Sep 17:34:30 17:38:57 86° 106° (ESE) 17:43:21 437.445
HORYU 2 25 Sep 17:47:25 17:51:43 57° 75° (ENE) 17:56:02 437.375
SO-50 25 Sep 17:50:19 17:53:02 15° 309° (NW) 17:55:44 436.795
Cosmos 2491 25 Sep 17:52:23 17:58:22 20° 289° (WNW) 18:04:27 435.465 / 435.565
CUBESAT XI-V 25 Sep 18:01:58 18:06:05 30° 97° (E) 18:10:09 437.345
AO-7 25 Sep 18:02:00 18:07:57 21° 264° (W) 18:13:56 29.400- 29.500
O/OREOS (USA 219) 25 Sep 18:02:17 18:05:48 21° 64° (ENE) 18:09:17 437.305
AIST 1 25 Sep 18:05:39 18:09:50 55° 267° (W) 18:13:59
STARS 25 Sep 18:15:42 18:20:03 67° 284° (WNW) 18:24:21 437.465
NOAA 15 25 Sep 18:22:07 18:26:50 34° 71° (ENE) 18:31:35 137.62
BRITE-PL 25 Sep 18:23:36 18:29:16 78° 76° (ENE) 18:34:57 437.365/2234.400
LilacSat-2 25 Sep 18:27:23 18:30:19 22° 72° (ENE) 18:33:15 437.200
GOMX 1 25 Sep 18:27:40 18:32:37 36° 73° (ENE) 18:37:26 467.674
MOZHAYETS 4 25 Sep 18:27:52 18:30:31 15° 292° (WNW) 18:33:09
Cubesat XI-IV 25 Sep 18:28:45 18:33:21 31° 70° (ENE) 18:37:57 437.490
CUTE-I 25 Sep 18:29:43 18:34:22 32° 71° (ENE) 18:39:01 437.470
PHONESAT 2.4 25 Sep 18:30:32 18:33:26 53° 212° (SSW) 18:36:20 2401.200-2431.200
Cosmos 2504 25 Sep 18:45:50 18:46:49 10° 279° (W) 18:47:48 435.465 / 435.565
NOAA 18 25 Sep 18:47:48 18:52:53 40° 71° (ENE) 18:57:57 137.9125
DOVE 4 25 Sep 19:03:02 19:07:39 34° 73° (ENE) 19:12:03 437.250
RS-15 25 Sep 19:10:38 19:17:53 19° 100° (E) 19:25:18 29.354- 29.394
STRAND 1 25 Sep 19:39:30 19:42:01 14° 94° (E) 19:44:31 437.568
CUBESAT XI-V 25 Sep 19:39:47 19:43:12 20° 290° (WNW) 19:46:37 437.345
O/OREOS (USA 219) 25 Sep 19:41:16 19:45:08 27° 258° (WSW) 19:48:58 437.305
CUSAT 1 25 Sep 19:44:45 19:49:49 40° 89° (E) 19:56:12 437.405
HO-68 25 Sep 19:55:04 20:01:27 36° 67° (ENE) 20:07:49 435.675
CUTE 1.7 + AOD 2 25 Sep 20:00:28 20:03:37 21° 71° (ENE) 20:06:47 437.475
CANX-2 25 Sep 20:00:51 20:04:17 25° 72° (ENE) 20:07:44 2200.000
LilacSat-2 25 Sep 20:02:02 20:04:30 17° 265° (W) 20:07:00 437.200
NOAA 15 25 Sep 20:02:28 20:06:35 23° 264° (W) 20:10:42 137.62
GOMX 1 25 Sep 20:06:24 20:10:37 23° 264° (W) 20:14:48 467.674
Cosmos 2499 25 Sep 20:06:30 20:12:13 22° 75° (ENE) 20:18:11 435.465 / 435.565
BRITE-PL 25 Sep 20:06:54 20:08:07 11° 269° (W) 20:09:20 437.365/2234.400
SEEDS 25 Sep 20:07:18 20:09:59 17° 70° (ENE) 20:12:41 437.485
Cubesat XI-IV 25 Sep 20:09:02 20:13:20 25° 263° (W) 20:17:39 437.490
CUTE-I 25 Sep 20:10:08 20:14:21 24° 263° (W) 20:18:36 437.470
JUGNU 25 Sep 20:23:10 20:25:42 13° 162° (SSE) 20:28:14 437.505
CUBEBUG 2 25 Sep 20:24:57 20:27:03 14° 69° (ENE) 20:29:08 437.445
GONETS M04 25 Sep 20:27:30 20:35:40 41° 78° (ENE) 20:43:43
NOAA 18 25 Sep 20:29:39 20:33:35 20° 264° (W) 20:37:32 137.9125
CINEMA 3 25 Sep 20:34:02 20:38:41 84° 76° (ENE) 20:43:07 145.822/145.860
AAUSAT CUBESAT 2 25 Sep 20:37:07 20:40:06 19° 71° (ENE) 20:43:06 437.432
DOVE 4 25 Sep 20:41:24 20:45:14 21° 264° (W) 20:49:00 437.250
UWE-3 25 Sep 20:47:59 20:50:35 16° 70° (ENE) 20:53:10 435.000/436.395/437.385
DANDE 25 Sep 20:51:14 20:55:26 53° 92° (E) 21:01:07 436.750
STRAND 1 25 Sep 21:16:24 21:21:23 52° 286° (WNW) 21:26:22 437.568
RS-15 25 Sep 21:17:13 21:28:40 85° 296° (WNW) 21:40:50 29.354- 29.394
COMPASS 1 25 Sep 21:17:27 21:21:35 88° 85° (E) 21:25:47 437.405
ZACube-1 25 Sep 21:22:14 21:25:40 25° 72° (ENE) 21:29:04 437.345
Oscar 11 25 Sep 21:24:51 21:28:30 28° 72° (ENE) 21:32:09 145.826/435.025
CUSAT 1 25 Sep 21:27:25 21:32:03 25° 291° (WNW) 21:37:34 437.405
CUTE 1.7 + AOD 2 25 Sep 21:35:54 21:39:16 23° 264° (W) 21:42:41 437.475
CANX-2 25 Sep 21:36:59 21:40:03 19° 265° (W) 21:43:08 2200.000
ISS 25 Sep 21:38:43 21:41:53 51° 316° (NW) 21:45:05 145.825
SEEDS 25 Sep 21:41:47 21:45:24 29° 263° (W) 21:49:05 437.485
HO-68 25 Sep 21:42:38 21:49:01 35° 261° (W) 21:55:26 435.675
AO-85 25 Sep 21:47:46 21:52:56 53° 114° (ESE) 21:57:52 145.980
Cosmos 2499 25 Sep 21:58:05 22:05:31 57° 268° (W) 22:13:31 435.465 / 435.565
CUBEBUG 2 25 Sep 21:59:24 22:03:21 36° 261° (W) 22:07:14 437.445
HUMSAT D 25 Sep 22:06:08 22:08:14 14° 69° (ENE) 22:10:19 437.325/437.525
JUGNU 25 Sep 22:09:32 22:14:08 23° 171° (S) 22:18:43 437.505
PRISM 25 Sep 22:11:07 22:15:10 55° 101° (E) 22:19:11 437.425
AAUSAT CUBESAT 2 25 Sep 22:12:00 22:15:22 24° 264° (W) 22:18:46 437.432
FUNcube-1 25 Sep 22:16:59 22:21:06 65° 259° (W) 22:25:13 145.935
DELFI C3 25 Sep 22:17:47 22:21:33 43° 75° (ENE) 22:25:23 145.870
UWE-3 25 Sep 22:23:06 22:26:47 29° 262° (W) 22:30:25 435.000/436.395/437.385
GONETS M04 25 Sep 22:24:33 22:32:11 35° 273° (W) 22:39:47
DANDE 25 Sep 22:36:59 22:39:05 12° 297° (WNW) 22:41:24 436.750
TIGRISAT 25 Sep 22:49:34 22:52:11 15° 95° (E) 22:54:48 435.000
ZACube-1 25 Sep 22:59:01 23:01:53 18° 265° (W) 23:04:44 437.345
Oscar 11 25 Sep 23:01:37 23:04:35 18° 265° (W) 23:07:33 145.826/435.025
SRMSAT 25 Sep 23:02:36 23:05:42 15° 163° (SSE) 23:08:48 437.500
UNISAT 6 25 Sep 23:27:53 23:32:11 49° 100° (E) 23:36:33 437.425
AO-85 25 Sep 23:30:11 23:33:36 17° 307° (NW) 23:36:54 145.980
RS-15 25 Sep 23:34:24 23:43:06 23° 320° (NW) 23:52:11 29.354- 29.394
HUMSAT D 25 Sep 23:39:50 23:43:30 33° 262° (W) 23:47:12 437.325/437.525
ESTCUBE 1 25 Sep 23:40:36 23:44:28 29° 72° (ENE) 23:48:22 437.505/2401.250
M-CUBED/EXP-1 PRIME 25 Sep 23:45:32 23:48:03 16° 67° (ENE) 23:50:29 437.505
VELOX 1 25 Sep 23:51:18 23:54:16 18° 69° (ENE) 23:57:14 145.980
DX 1 25 Sep 23:53:29 23:54:30 11° 67° (ENE) 23:55:31 434.975-435.025
JUGNU 25 Sep 23:57:42 00:02:39 28° 181° (S) 00:07:34 437.505
CUBEBUG 1 26 Sep 00:00:51 00:04:42 30° 72° (ENE) 00:08:33 437.445
ANTELSAT 26 Sep 00:03:21 00:07:42 60° 284° (WNW) 00:12:09 437.575/2403.000
NANOSAT C BR1 26 Sep 00:08:55 00:11:03 14° 94° (E) 00:13:12 145.865
TIGRISAT 26 Sep 00:24:53 00:28:53 35° 286° (WNW) 00:32:57 435.000
QB50P2 26 Sep 00:28:39 00:32:20 29° 98° (E) 00:36:00 145.880/145.840
50 SAT 26 Sep 00:30:11 00:33:38 46° 75° (ENE) 00:37:08 437.505
POLYITAN 1 26 Sep 00:30:53 00:34:34 29° 98° (E) 00:38:14 437.675
AISAT 26 Sep 00:42:04 00:46:31 78° 76° (ENE) 00:50:58 437.250
AUBIESAT-1 26 Sep 00:42:49 00:47:01 64° 73° (ENE) 00:50:58 437.475
SO-50 26 Sep 00:46:21 00:48:10 12° 49° (NE) 00:49:58 436.795
SRMSAT 26 Sep 00:49:34 00:54:17 25° 172° (S) 00:59:01 437.500
SPROUT 26 Sep 00:52:41 00:56:47 48° 75° (ENE) 01:00:54 437.525
JAS-2 26 Sep 00:56:46 01:04:21 50° 99° (E) 01:11:27 435.910
UKube-1 26 Sep 01:01:51 01:06:05 57° 75° (ENE) 01:10:20 .
UNISAT 6 26 Sep 01:06:58 01:08:27 11° 292° (WNW) 01:09:55 437.425
QB50P1 26 Sep 01:11:24 01:15:37 83° 282° (WNW) 01:19:49 145.935-145.965
DUCHIFAT 1 26 Sep 01:11:56 01:16:07 85° 103° (ESE) 01:20:19 145.980
ESTCUBE 1 26 Sep 01:17:57 01:21:13 20° 265° (W) 01:24:30 437.505/2401.250
M-CUBED/EXP-1 PRIME 26 Sep 01:18:19 01:22:18 34° 256° (WSW) 01:26:03 437.505
BUGSAT 1 26 Sep 01:24:19 01:28:07 41° 100° (E) 01:31:55 437.445
POPSAT HIP 1 26 Sep 01:24:46 01:28:53 56° 285° (WNW) 01:33:00 437.405
DX 1 26 Sep 01:25:55 01:30:10 52° 259° (W) 01:34:27 434.975-435.025
VELOX 1 26 Sep 01:26:28 01:30:26 31° 262° (W) 01:34:25 145.980
BEESAT 3 26 Sep 01:35:25 01:39:02 38° 113° (ESE) 01:42:40 437.485
CUBEBUG 1 26 Sep 01:37:56 01:40:57 18° 265° (W) 01:43:58 437.445
NANOSAT C BR1 26 Sep 01:43:01 01:46:50 34° 287° (WNW) 01:50:38 145.865
JUGNU 26 Sep 01:46:42 01:51:07 22° 191° (S) 01:55:31 437.505
QB50P2 26 Sep 02:05:07 02:07:52 17° 290° (WNW) 02:10:37 145.880/145.840
POLYITAN 1 26 Sep 02:07:21 02:10:06 17° 290° (WNW) 02:12:50 437.675
Cosmos 2491 26 Sep 02:10:35 02:17:39 26° 74° (ENE) 02:24:38 435.465 / 435.565
TISAT 1 26 Sep 02:21:19 02:25:30 78° 257° (WSW) 02:29:42 437.305
SO-50 26 Sep 02:24:34 02:29:01 60° 245° (WSW) 02:33:22 436.795
BEESAT 2 26 Sep 02:25:47 02:29:41 78° 116° (ESE) 02:33:38 435.950
SRMSAT 26 Sep 02:38:00 02:42:57 28° 182° (S) 02:47:55 437.500
Oscar 19 26 Sep 02:40:17 02:45:19 53° 101° (E) 02:50:18 437.125/150
JAS-2 26 Sep 02:42:21 02:48:51 30° 294° (WNW) 02:55:06 435.910
BUGSAT 1 26 Sep 03:02:01 03:03:04 11° 292° (WNW) 03:04:08 437.445
YUBILEINY 26 Sep 03:04:16 03:11:32 30° 85° (E) 03:18:45 435.215
ITUPSAT 1 26 Sep 03:08:52 03:13:30 57° 75° (ENE) 03:18:10 437.325
BEESAT 3 26 Sep 03:14:54 03:16:49 13° 307° (NW) 03:18:44 437.485
Gurwin Techsat 1B 26 Sep 03:19:49 03:25:04 60° 101° (E) 03:30:18 435.225
SWISSCUBE 26 Sep 03:23:06 03:27:51 85° 258° (WSW) 03:32:38 437.505
ITAMSAT 1 26 Sep 03:29:46 03:33:12 17° 95° (E) 03:36:35 435.822/435.867
Cosmos 2504 26 Sep 03:32:30 03:34:06 11° 82° (E) 03:35:40 435.465 / 435.565
BEESAT 26 Sep 03:36:24 03:41:06 67° 258° (WSW) 03:45:51 436.000
JUGNU 26 Sep 03:37:48 03:39:31 11° 199° (SSW) 03:41:14 437.505
MOZHAYETS 4 26 Sep 03:46:36 03:49:58 21° 70° (ENE) 03:53:20
Cosmos 2491 26 Sep 04:06:15 04:14:47 55° 270° (W) 04:23:15 435.465 / 435.565
ISS 26 Sep 04:11:52 04:13:36 14° 34° (NE) 04:15:20 145.825
AO-7 26 Sep 04:15:12 04:22:12 30° 99° (E) 04:29:11 29.400- 29.500
RS-15 26 Sep 04:15:22 04:23:25 19° 35° (NE) 04:31:21 29.354- 29.394
Oscar 19 26 Sep 04:21:27 04:24:07 14° 294° (WNW) 04:26:47 437.125/150
KKS-1 26 Sep 04:27:07 04:31:15 38° 73° (ENE) 04:35:22 437.445
SRMSAT 26 Sep 04:27:18 04:31:36 21° 192° (SSW) 04:35:54 437.500
AIST 2 26 Sep 04:29:06 04:33:02 51° 114° (ESE) 04:37:02 435.215
ITUPSAT 1 26 Sep 04:50:41 04:51:35 10° 267° (W) 04:52:30 437.325
YUBILEINY 26 Sep 04:59:29 05:07:52 47° 281° (W) 05:16:14 435.215
PCSat 26 Sep 05:00:25 05:05:32 45° 110° (ESE) 05:10:41 145.827
CUBESAT XI-V 26 Sep 05:00:53 05:03:47 17° 69° (ENE) 05:06:43 437.345
Gurwin Techsat 1B 26 Sep 05:01:58 05:04:26 13° 295° (WNW) 05:06:54 435.225
STARS 26 Sep 05:06:38 05:10:54 51° 74° (ENE) 05:15:09 437.465
ITAMSAT 1 26 Sep 05:07:51 05:12:45 42° 288° (WNW) 05:17:39 435.822/435.867
Cosmos 2504 26 Sep 05:18:51 05:26:29 87° 275° (W) 05:33:45 435.465 / 435.565
MOZHAYETS 4 26 Sep 05:23:00 05:26:54 28° 263° (W) 05:30:50
HORYU 2 26 Sep 05:44:48 05:47:41 17° 95° (E) 05:50:35 437.375
ISS 26 Sep 05:47:05 05:50:17 49° 229° (SW) 05:53:28 145.825
KKS-1 26 Sep 06:05:34 06:07:53 14° 265° (W) 06:10:12 437.445
AO-7 26 Sep 06:07:12 06:15:03 49° 293° (WNW) 06:22:55 29.400- 29.500
AIST 2 26 Sep 06:10:21 06:11:47 12° 309° (NW) 06:13:14 435.215
CUSAT 1 26 Sep 06:25:32 06:31:37 26° 70° (ENE) 06:36:56 437.405
RS-15 26 Sep 06:26:20 06:38:42 69° 60° (ENE) 06:50:38 29.354- 29.394
AIST 1 26 Sep 06:28:40 06:33:02 74° 276° (W) 06:37:26
BRITE-PL 26 Sep 06:35:27 06:39:47 35° 97° (E) 06:43:50 437.365/2234.400
CUBESAT XI-V 26 Sep 06:36:28 06:40:48 38° 262° (W) 06:45:11 437.345
GOMX 1 26 Sep 06:37:36 06:39:16 12° 92° (E) 06:40:56 467.674
NOAA 15 26 Sep 06:43:25 06:47:14 20° 96° (E) 06:51:00 137.62
PCSat 26 Sep 06:45:13 06:49:06 20° 305° (NW) 06:53:01 145.827
STRAND 1 26 Sep 06:51:23 06:53:04 12° 65° (ENE) 06:54:45 437.568
Cubesat XI-IV 26 Sep 06:51:58 06:55:46 19° 96° (E) 06:59:32 437.490
CUTE-I 26 Sep 06:52:44 06:56:36 20° 96° (E) 07:00:28 437.470
DOVE 4 26 Sep 07:10:23 07:11:02 10° 93° (E) 07:11:42 437.250
NOAA 18 26 Sep 07:15:38 07:20:13 27° 98° (E) 07:24:48 137.9125
Cosmos 2504 26 Sep 07:19:54 07:20:39 10° 291° (WNW) 07:21:24 435.465 / 435.565
HORYU 2 26 Sep 07:20:17 07:24:14 32° 288° (WNW) 07:28:11 437.375
DANDE 26 Sep 07:34:14 07:42:07 43° 76° (ENE) 07:49:21 436.750
LilacSat-2 26 Sep 07:39:04 07:42:54 74° 100° (E) 07:46:45 437.200
AO-85 26 Sep 08:05:32 08:09:31 67° 245° (WSW) 08:13:20 145.980
CUSAT 1 26 Sep 08:06:45 08:13:58 48° 270° (W) 08:19:56 437.405
O/OREOS (USA 219) 26 Sep 08:08:01 08:12:30 66° 106° (ESE) 08:17:02 437.305
GOMX 1 26 Sep 08:13:31 08:17:34 38° 287° (WNW) 08:21:26 467.674
BRITE-PL 26 Sep 08:14:58 08:17:53 16° 293° (WNW) 08:20:39 437.365/2234.400
NOAA 15 26 Sep 08:22:10 08:27:02 38° 288° (WNW) 08:31:52 137.62
STRAND 1 26 Sep 08:26:36 08:31:37 65° 258° (WSW) 08:36:42 437.568
Cubesat XI-IV 26 Sep 08:30:55 08:35:52 40° 288° (WNW) 08:40:50 437.490
CUTE-I 26 Sep 08:31:46 08:36:41 39° 288° (WNW) 08:41:37 437.470
CINEMA 3 26 Sep 08:34:27 08:38:02 27° 98° (E) 08:41:41 145.822/145.860
Cosmos 2499 26 Sep 08:38:43 08:43:18 18° 85° (E) 08:47:47 435.465 / 435.565
RS-15 26 Sep 08:40:26 08:50:07 29° 257° (WSW) 08:59:35 29.354- 29.394
DOVE 4 26 Sep 08:45:00 08:48:56 41° 286° (WNW) 08:52:48 437.250
PRISM 26 Sep 08:55:54 08:58:52 19° 70° (ENE) 09:01:50 437.425
NOAA 18 26 Sep 08:56:04 09:00:46 30° 290° (WNW) 09:05:28 137.9125
COMPASS 1 26 Sep 09:06:25 09:09:37 21° 96° (E) 09:12:47 437.405
HO-68 26 Sep 09:15:20 09:22:25 63° 103° (ESE) 09:29:29 435.675
